This is the latest recevied weather packets stored in our database for station/object AB8Y-13. If no packets are shown the sender has not sent any weather packets the latest 10 day(s).
| Time | Temp. | Humidity | Pressure | Rain* | Wind** | Luminosity | Snow |
|---|---|---|---|---|---|---|---|
| 1777854885 | 12.78° C | 55% | 1008.1 hPa | 0 mm | - | 3 W/m² | - |
| 1777854582 | 12.78° C | 54% | 1008 hPa | 0 mm | - | 4 W/m² | - |
| 1777854279 | 12.78° C | 54% | 1008 hPa | 0 mm | - | 7 W/m² | - |
| 1777853976 | 12.78° C | 54% | 1008.1 hPa | 0 mm | - | 10 W/m² | - |
| 1777853673 | 12.78° C | 52% | 1008.1 hPa | 0 mm | - | 14 W/m² | - |
| 1777853370 | 13.33° C | 53% | 1008 hPa | 0 mm | - | 20 W/m² | - |
| 1777853067 | 13.33° C | 51% | 1008.2 hPa | 0 mm | - | 27 W/m² | - |
| 1777852764 | 13.89° C | 51% | 1008.1 hPa | 0 mm | - | 33 W/m² | - |
| 1777852462 | 13.89° C | 49% | 1008 hPa | 0 mm | - | 34 W/m² | - |
| 1777852159 | 14.44° C | 49% | 1007.9 hPa | 0 mm | - | 40 W/m² | - |
| 1777851857 | 14.44° C | 49% | 1008 hPa | 0 mm | - | 53 W/m² | - |
| 1777851555 | 14.44° C | 47% | 1008.1 hPa | 0 mm | - | 77 W/m² | - |
| 1777851251 | 14.44° C | 48% | 1008.1 hPa | 0 mm | - | 80 W/m² | - |
| 1777850947 | 14.44° C | 48% | 1007.9 hPa | 0 mm | - | 72 W/m² | - |
| 1777850645 | 15° C | 49% | 1008.1 hPa | 0 mm | - | 77 W/m² | - |
| 1777850342 | 15° C | 48% | 1008 hPa | 0 mm | - | 87 W/m² | - |
| 1777850039 | 15° C | 46% | 1008 hPa | 0 mm | - | 101 W/m² | - |
| 1777849735 | 15° C | 49% | 1007.9 hPa | 0 mm | - | 122 W/m² | - |
| 1777849432 | 15° C | 48% | 1008.2 hPa | 0 mm | - | 135 W/m² | - |
| 1777849130 | 14.44° C | 50% | 1008 hPa | 0 mm | - | 103 W/m² | - |
| 1777848826 | 14.44° C | 51% | 1007.9 hPa | 0 mm | - | 55 W/m² | - |
| 1777848522 | 14.44° C | 52% | 1008 hPa | 0 mm | - | 50 W/m² | - |
| 1777848219 | 14.44° C | 53% | 1008.1 hPa | 0 mm | - | 46 W/m² | - |
| 1777847917 | 14.44° C | 50% | 1008.2 hPa | 0 mm | - | 45 W/m² | - |
| 1777847614 | 14.44° C | 49% | 1008.2 hPa | 0 mm | - | 48 W/m² | - |
* Rain latest hour (hover to see other rain measurements)
** Current wind speed in m/s (hover to see current wind gust speed)